Weather History for KHKY - April, 2014

Change the Weather History Date:

Saturday, April 12, 2014

  Actual Average Record
Temperature  
Mean Temperature 63 °F -  
Max Temperature 79 °F 70 °F 86 °F (1977)
Min Temperature 48 °F 45 °F 27 °F (1989)
Degree Days  
Heating Degree Days 2    
Growing Degree Days 13 (Base 50)    
Moisture  
Dew Point 44 °F    
Average Humidity 51    
Maximum Humidity 83    
Minimum Humidity 30    
Precipitation  
Precipitation 0.00 in - - ()
Sea Level Pressure  
Sea Level Pressure 30.11 in    
Wind  
Wind Speed 2 mph (NNE)    
Max Wind Speed 7 mph    
Max Gust Speed -    
Visibility 10 miles    
Events      
Averages and records for this station are not official NWS values.
T = Trace of Precipitation, MM = Missing Value Source: NWS Daily Summary

Daily Weather History Graph

Daily Weather History Graph

Search for Another Location

Airport or City:

Trip Planner

Search our weather history database for the weather conditions in past years. The results will help you decide how hot, cold, wet, or windy it might be!

Date:

Astronomy

Apr. 12, 2014 Rise Set
Actual Time 6:56 AM EDT 7:56 PM EDT
Civil Twilight 6:30 AM EDT 8:22 PM EDT
Nautical Twilight 5:59 AM EDT 8:53 PM EDT
Astronomical Twilight 5:27 AM EDT 9:25 PM EDT
Moon 5:37 PM EDT (4/12) 5:17 AM EDT (4/12)
Length of Visible Light 13h 52m
Length of Day
12h 59m
Waxing Gibbous, 93% of the Moon is Illuminated
Apr 12
Waxing Gibbous
Apr 15
Full
Apr 22
Last Quarter
Apr 29
New
May 6
First Quarter

Hourly Weather History & Observations

Time (EDT) Temp. Dew Point Humidity Pressure Visibility Wind Dir Wind Speed Gust Speed Precip Events Conditions
12:53 AM 57.0 °F 39.9 °F 53% 30.09 in 10.0 mi Calm Calm - N/A   Clear
1:53 AM 53.1 °F 41.0 °F 64% 30.09 in 10.0 mi North 3.5 mph - N/A   Clear
2:53 AM 51.1 °F 42.1 °F 71% 30.07 in 10.0 mi Calm Calm - N/A   Clear
3:53 AM 50.0 °F 42.1 °F 74% 30.08 in 10.0 mi Calm Calm - N/A   Clear
4:53 AM 50.0 °F 42.1 °F 74% 30.09 in 10.0 mi Calm Calm - N/A   Clear
5:53 AM 48.0 °F 42.1 °F 80% 30.11 in 10.0 mi Calm Calm - N/A   Clear
6:53 AM 48.9 °F 42.1 °F 77% 30.12 in 10.0 mi Calm Calm - N/A   Clear
7:53 AM 48.9 °F 44.1 °F 83% 30.15 in 10.0 mi Calm Calm - N/A   Clear
8:53 AM 57.0 °F 44.1 °F 62% 30.16 in 10.0 mi NW 3.5 mph - N/A   Clear
9:53 AM 64.0 °F 44.1 °F 48% 30.17 in 10.0 mi WNW 4.6 mph - N/A   Clear
10:53 AM 72.0 °F 44.1 °F 37% 30.18 in 10.0 mi NNE 3.5 mph - N/A   Clear
11:53 AM 75.0 °F 45.0 °F 34% 30.17 in 10.0 mi NE 6.9 mph - N/A   Clear
12:53 PM 75.9 °F 46.0 °F 35% 30.15 in 10.0 mi Variable 5.8 mph - N/A   Clear
1:53 PM 75.0 °F 46.0 °F 36% 30.14 in 10.0 mi Variable 3.5 mph - N/A   Scattered Clouds
2:53 PM 77.0 °F 46.0 °F 33% 30.12 in 10.0 mi East 3.5 mph - N/A   Scattered Clouds
3:53 PM 75.9 °F 45.0 °F 33% 30.10 in 10.0 mi Variable 3.5 mph - N/A   Partly Cloudy
4:53 PM 78.1 °F 45.0 °F 31% 30.07 in 10.0 mi Variable 3.5 mph - N/A   Partly Cloudy
5:53 PM 77.0 °F 44.1 °F 31% 30.07 in 10.0 mi Variable 3.5 mph - N/A   Clear
6:53 PM 77.0 °F 43.0 °F 30% 30.06 in 10.0 mi South 6.9 mph - N/A   Partly Cloudy
7:53 PM 72.0 °F 44.1 °F 37% 30.07 in 10.0 mi Calm Calm - N/A   Clear
8:53 PM 68.0 °F 44.1 °F 42% 30.08 in 10.0 mi Calm Calm - N/A   Clear
9:53 PM 64.9 °F 45.0 °F 48% 30.09 in 10.0 mi Calm Calm - N/A   Clear
10:53 PM 66.9 °F 45.0 °F 45% 30.09 in 10.0 mi South 5.8 mph - N/A   Clear
11:53 PM 63.0 °F 46.9 °F 56% 30.09 in 10.0 mi South 4.6 mph - N/A   Clear